This is the latest recevied weather packets stored in our database for station/object EA7JCM-13. If no packets are shown the sender has not sent any weather packets the latest 10 day(s).
| Time | Temp. | Humidity | Pressure | Rain* | Wind** | Luminosity | Snow |
|---|---|---|---|---|---|---|---|
| 1777572002 | 20° C | 61% | 1012.1 hPa | 0 mm | - | - | - |
| 1777571703 | 20° C | 61% | 1012.1 hPa | 0 mm | - | - | - |
| 1777571403 | 20° C | 62% | 1011.8 hPa | 0 mm | - | - | - |
| 1777571102 | 19.44° C | 62% | 1012 hPa | 0 mm | - | - | - |
| 1777570803 | 20° C | 64% | 1012.1 hPa | 0 mm | - | - | - |
| 1777570502 | 20° C | 64% | 1012.1 hPa | 0 mm | - | - | - |
| 1777570203 | 20° C | 65% | 1012 hPa | 0 mm | - | - | - |
| 1777569903 | 20° C | 64% | 1012 hPa | 0 mm | - | - | - |
| 1777569603 | 20° C | 65% | 1011.9 hPa | 0 mm | - | - | - |
| 1777569302 | 20.56° C | 65% | 1011.8 hPa | 0 mm | - | - | - |
| 1777569002 | 20.56° C | 64% | 1011.9 hPa | 0 mm | - | - | - |
| 1777568703 | 20.56° C | 65% | 1011.9 hPa | 0 mm | - | - | - |
| 1777568403 | 20.56° C | 64% | 1011.9 hPa | 0 mm | - | - | - |
| 1777568103 | 21.11° C | 64% | 1011.9 hPa | 0 mm | - | - | - |
| 1777567803 | 21.67° C | 63% | 1012 hPa | 0 mm | - | - | - |
| 1777567503 | 21.67° C | 60% | 1011.9 hPa | 0 mm | - | - | - |
| 1777567202 | 21.11° C | 61% | 1011.9 hPa | 0 mm | - | - | - |
| 1777566902 | 21.11° C | 61% | 1011.8 hPa | 0 mm | - | - | - |
| 1777566603 | 21.11° C | 61% | 1011.6 hPa | 0 mm | - | - | - |
| 1777566302 | 21.67° C | 60% | 1011.5 hPa | 0 mm | - | - | - |
| 1777566002 | 21.11° C | 60% | 1011.8 hPa | 0 mm | - | - | - |
| 1777565703 | 21.11° C | 60% | 1011.6 hPa | 0 mm | - | - | - |
| 1777565402 | 22.22° C | 60% | 1011.8 hPa | 0 mm | - | - | - |
| 1777565102 | 21.11° C | 61% | 1011.6 hPa | 0 mm | - | - | - |
| 1777564803 | 21.11° C | 62% | 1011.8 hPa | 0 mm | - | - | - |
* Rain latest hour (hover to see other rain measurements)
** Current wind speed in m/s (hover to see current wind gust speed)